COSMOS 1275 DEB, 39942

Orbit data source: Space-Track

COSMOS 1275 DEB, 39942 is space debris in LEO originally from a launch on Thu, 04 Jun 1981 UTC launched from the Plesetsk Missile And Space Complex (PKMTR). Debris objects in space refer to the collection of defunct objects orbiting the Earth. Examples of debris include non-operational satellites, rocket bodies, and fragments generated from explosions, collisions, or faulty payload assembly.

Loading next visibility...
Identifier
39942, 1981-053NC
Orbit
LEO
Country
Flag of CISCIS
Related business
Manufacturer
Unknown
Mission
Spacecraft
Bus & Motor
Unknown
Mass
Unknown
Launch date (UTC)
1981-06-04 (45 years ago)
Launch vehicle
Unknown
Launch site
Plesetsk Missile And Space Complex (PKMTR)
Object type
Payload
Rocket body
Debris
Shape & HBR
Unknown shape, 0.1 m
Radar Cross Section
Small (<0.1 m²)

Expand to show TLE details & history
Last TLE update: 23 hours ago

TLE from 23 hours ago
0 COSMOS 1275 DEB
1 39942U 81053NC  26093.61872917  .00002245  00000-0  15598-2 0  9998
2 39942  83.1754 213.5668 0041435 340.2319  19.7242 13.98011245601193
Epoch: 2026-04-03T14:50Z
TLE epoch observation values (Epoch: 2026-04-03T14:50:58.200Z)
Latitude
-0.00004°
Longitude
158.87403°
Altitude
875.246 km
Speed
7.429 km/s
True Right ascension
14h 14m 16s
True Declination
0° 00' 00"
Sunlit
Object was in full shadow at epoch
Visualization orbit readout
Latitude
Unknown
Longitude
Unknown
Altitude
Unknown
Speed
Unknown
Apparent Right ascension
Unknown
Apparent Declination
Unknown
Sunlit
N/A
Visualization observer readout
Local Sidereal Time
19:57:06
Azimuth
Unknown
Elevation
Unknown
Doppler factor
Unknown
Orbital elements
Apogee altitude
927.946 km
Perigee altitude
867.65 km
Semi-major axis
7,275.935 km
Eccentricity
0.00414
Inclination
83.1754°
RAAN
213.5668°
Arg. of periapsis
340.2319°
True anomaly
19.88523°
Mean anomaly
19.7242°
Eccentric anomaly
19.80464°
Mean motion
3.49712 °/min
Orbital period
102.94 mins
BSTAR
0.0015598
Loading maneuver chart data...
Computing Atmospheric mass density...
Loading historical data...
Loading historical data...
Loading historical data...
Loading historical data...
Loading historical data...
Loading historical data...
Loading historical data...

Documentation

Showing up to 5 results
|